Weather History for PASI - December, 2012

Change the Weather History Date:

Thursday, December 6, 2012

  Actual Average Record
Temperature  
Mean Temperature 34 °F -  
Max Temperature 37 °F 40 °F 51 °F (1960)
Min Temperature 30 °F 33 °F 12 °F (1977)
Degree Days  
Heating Degree Days 32    
Moisture  
Dew Point 29 °F    
Average Humidity 85    
Maximum Humidity 100    
Minimum Humidity 65    
Precipitation  
Precipitation 0.13 in - - ()
Sea Level Pressure  
Sea Level Pressure 29.67 in    
Wind  
Wind Speed 11 mph (ESE)    
Max Wind Speed 23 mph    
Max Gust Speed 28 mph    
Visibility 6 miles    
Events Fog , Snow    
Averages and records for this station are not official NWS values.
T = Trace of Precipitation, MM = Missing Value Source: NWS Daily Summary

Daily Weather History Graph

Daily Weather History Graph

Search for Another Location

Airport or City:

Trip Planner

Search our weather history database for the weather conditions in past years. The results will help you decide how hot, cold, wet, or windy it might be!

Date:

Astronomy

Dec. 06, 2012 Rise Set
Actual Time 8:24 AM AKST 3:21 PM AKST
Civil Twilight 7:35 AM AKST 4:09 PM AKST
Nautical Twilight 6:45 AM AKST 4:59 PM AKST
Astronomical Twilight 5:58 AM AKST 5:46 PM AKST
Moon No Moon Rise 12:06 PM AKST (12/6)
Length of Visible Light 8h 34m
Length of Day
6h 57m
Waning Gibbous, 48% of the Moon is Illuminated
Dec 6
Waning Gibbous
Dec 12
New
Dec 19
First Quarter
Dec 28
Full
Jan 4
Last Quarter

Hourly Weather History & Observations

Time (AKST) Temp. Windchill Dew Point Humidity Pressure Visibility Wind Dir Wind Speed Gust Speed Precip Events Conditions
12:02 AM 33.8 °F 24.8 °F 30.2 °F 87% 29.72 in 2.0 mi SSE 12.7 mph 25.3 mph 0.01 in Snow Light Snow
12:07 AM 33.8 °F 24.8 °F 30.2 °F 87% 29.73 in 0.8 mi South 12.7 mph 25.3 mph 0.01 in Snow Light Snow
12:12 AM 32.0 °F 23.6 °F 30.2 °F 93% 29.73 in 0.5 mi SSE 10.4 mph 19.6 mph 0.03 in Fog , Snow Snow
12:21 AM 33.8 °F 25.8 °F 32.0 °F 93% 29.72 in 1.2 mi East 10.4 mph - 0.03 in Snow Light Snow
12:29 AM 32.0 °F 24.2 °F 32.0 °F 100% 29.73 in 3.0 mi East 9.2 mph - 0.03 in Snow Light Snow
12:53 AM 30.9 °F 23.5 °F 28.9 °F 92% 29.73 in 10.0 mi East 8.1 mph - 0.03 in   Partly Cloudy
1:49 AM 33.8 °F 27.7 °F 28.4 °F 81% 29.73 in 4.0 mi East 6.9 mph - 0.00 in Snow Light Snow
1:53 AM 33.1 °F 25.5 °F 28.9 °F 85% 29.72 in 2.0 mi ESE 9.2 mph - 0.01 in Snow Light Snow
1:57 AM 33.8 °F 27.0 °F 28.4 °F 81% 29.72 in 1.2 mi East 8.1 mph - 0.00 in Snow Light Snow
2:05 AM 33.8 °F 27.7 °F 28.4 °F 81% 29.72 in 2.0 mi East 6.9 mph - 0.00 in Snow Light Snow
2:16 AM 32.0 °F 27.5 °F 28.4 °F 87% 29.72 in 1.8 mi East 4.6 mph - 0.00 in Snow Light Snow
2:32 AM 33.8 °F 25.3 °F 30.2 °F 87% 29.72 in 2.0 mi ESE 11.5 mph - 0.00 in Snow Heavy Snow
2:46 AM 32.0 °F 25.6 °F 30.2 °F 93% 29.72 in 1.8 mi East 6.9 mph - 0.01 in Snow Light Snow
2:49 AM 32.0 °F 26.4 °F 30.2 °F 93% 29.72 in 2.5 mi East 5.8 mph - 0.01 in Snow Light Snow
3:16 AM 32.0 °F 25.6 °F 28.4 °F 87% 29.72 in 1.8 mi ESE 6.9 mph - 0.01 in Snow Light Snow
3:24 AM 33.8 °F 25.3 °F 30.2 °F 87% 29.72 in 0.8 mi SE 11.5 mph - 0.01 in Snow Light Snow
3:37 AM 32.0 °F 23.6 °F 30.2 °F 93% 29.72 in 0.5 mi ESE 10.4 mph - 0.03 in Fog , Snow Snow
3:53 AM 32.0 °F 22.5 °F 32.0 °F 100% 29.72 in 0.8 mi ESE 12.7 mph - 0.04 in Snow Light Snow
4:00 AM 32.0 °F 23.0 °F 32.0 °F 100% 29.72 in 1.5 mi East 11.5 mph - 0.00 in Snow Light Snow
4:03 AM 32.0 °F 23.0 °F 32.0 °F 100% 29.72 in 2.0 mi ESE 11.5 mph - 0.00 in Snow Light Snow
4:12 AM 32.0 °F 22.5 °F 30.2 °F 93% 29.72 in 6.0 mi East 12.7 mph - 0.00 in Snow Light Snow
4:27 AM 33.8 °F 26.4 °F 30.2 °F 87% 29.72 in 10.0 mi East 9.2 mph - 0.00 in   Overcast
4:32 AM 33.8 °F 25.3 °F 30.2 °F 87% 29.72 in 10.0 mi East 11.5 mph - 0.00 in   Overcast
4:42 AM 33.8 °F 25.8 °F 28.4 °F 81% 29.71 in 10.0 mi East 10.4 mph - 0.00 in   Overcast
4:53 AM 33.1 °F 23.9 °F 28.9 °F 85% 29.71 in 10.0 mi East 12.7 mph - 0.00 in   Overcast
5:32 AM 33.8 °F 25.3 °F 28.4 °F 81% 29.72 in 5.0 mi SE 11.5 mph - 0.00 in Snow Light Snow
5:38 AM 33.8 °F 24.8 °F 28.4 °F 81% 29.72 in 2.5 mi SE 12.7 mph - 0.00 in Snow Light Snow
5:53 AM 33.1 °F 24.4 °F 30.0 °F 89% 29.72 in 1.5 mi East 11.5 mph - 0.00 in Snow Light Snow
6:17 AM 32.0 °F 24.2 °F 30.2 °F 93% 29.72 in 2.0 mi East 9.2 mph - 0.04 in Snow Light Snow
6:25 AM 32.0 °F 23.0 °F 30.2 °F 93% 29.72 in 5.0 mi East 11.5 mph - 0.04 in Snow Light Snow
6:44 AM 32.0 °F 24.2 °F 30.2 °F 93% 29.72 in 9.0 mi East 9.2 mph - 0.04 in   Overcast
6:53 AM 32.0 °F 24.8 °F 30.0 °F 92% 29.72 in 10.0 mi East 8.1 mph - 0.04 in   Overcast
7:53 AM 34.0 °F - 28.9 °F 82% 29.72 in 10.0 mi Calm Calm - 0.00 in   Overcast
8:05 AM 33.8 °F 29.6 °F 28.4 °F 81% 29.72 in 10.0 mi East 4.6 mph - N/A   Overcast
8:26 AM 32.0 °F 26.4 °F 28.4 °F 87% 29.72 in 10.0 mi East 5.8 mph - N/A   Overcast
8:53 AM 32.0 °F 25.6 °F 28.9 °F 88% 29.72 in 10.0 mi East 6.9 mph - N/A   Mostly Cloudy
9:53 AM 33.1 °F 26.9 °F 28.9 °F 85% 29.71 in 10.0 mi ESE 6.9 mph - N/A   Overcast
10:53 AM 35.1 °F 27.9 °F 28.9 °F 78% 29.71 in 10.0 mi ESE 9.2 mph - N/A   Overcast
11:53 AM 36.0 °F 29.6 °F 28.0 °F 73% 29.69 in 10.0 mi East 8.1 mph - N/A   Overcast
12:53 PM 37.0 °F 28.9 °F 27.0 °F 67% 29.66 in 10.0 mi SE 12.7 mph - N/A   Overcast
1:53 PM 37.0 °F 27.7 °F 28.0 °F 70% 29.63 in 10.0 mi ESE 16.1 mph - N/A   Overcast
2:53 PM 36.0 °F 28.5 °F 27.0 °F 70% 29.60 in 10.0 mi East 10.4 mph - N/A   Overcast
3:53 PM 37.0 °F 28.9 °F 27.0 °F 67% 29.59 in 10.0 mi ESE 12.7 mph - N/A   Overcast
4:53 PM 37.0 °F 29.3 °F 26.1 °F 65% 29.55 in 10.0 mi East 11.5 mph - N/A   Overcast
5:53 PM 37.0 °F 25.9 °F 28.0 °F 70% 29.52 in 10.0 mi ESE 23.0 mph 27.6 mph N/A   Overcast
6:53 PM 37.9 °F 29.6 °F 28.9 °F 70% 29.51 in 10.0 mi SE 13.8 mph 21.9 mph N/A   Overcast
7:53 PM 37.0 °F 29.3 °F 28.9 °F 73% 29.49 in 10.0 mi ESE 11.5 mph - N/A   Overcast
8:53 PM 37.0 °F 27.7 °F 28.9 °F 73% 29.49 in 10.0 mi ESE 16.1 mph - N/A   Partly Cloudy
9:53 PM 37.0 °F 29.8 °F 28.0 °F 70% 29.51 in 10.0 mi SE 10.4 mph - N/A   Overcast
10:53 PM 36.0 °F 26.3 °F 28.9 °F 76% 29.52 in 10.0 mi ESE 16.1 mph 23.0 mph N/A   Overcast
11:31 PM 35.6 °F 24.8 °F 30.2 °F 81% 29.54 in 10.0 mi SE 19.6 mph 23.0 mph 0.00 in Snow Light Snow
11:41 PM 33.8 °F 23.5 °F 32.0 °F 93% 29.55 in 1.8 mi SE 16.1 mph 24.2 mph 0.00 in Snow Light Snow
11:49 PM 33.8 °F 24.8 °F 33.8 °F 100% 29.55 in 2.5 mi ESE 12.7 mph - 0.00 in Snow Light Snow
11:53 PM 34.0 °F 24.6 °F 33.1 °F 96% 29.55 in 4.0 mi ESE 13.8 mph - 0.01 in Snow Light Snow